Retour au catalogue

STARLINK-35134

ActifCommunicationsVLEO
NORAD 65641·PAYLOAD·🇺🇸 United States

Lancé Sep 18, 2025 depuis Cape Canaveral Space Force Station

Loading…

Prochains Passages (prochaines 24 heures)

TLE

FraisSource: CelesTrak SupGP

Époque: Sep 14, 2026, 22:40 UTC

1 65641C 25210V   26257.94493056 -.00076959  00000+0 -22736-2 0  2570
2 65641  53.1566 143.5322 0001205  97.5997 133.1504 15.34430832    15

Suivez STARLINK-35134 en temps réel avec AllMySat

Download on the App Store